STARLINK-3160, 49454

Orbit data source: Space-Track

STARLINK-3160, 49454 is a payload satellite owned by SpaceX/Seattle (US) in LEO that was launched on Sat, 13 Nov 2021 UTC via an FALCON 9 launch vehicle from the Air Force Eastern Test Range (AFETR). Payload-class satellites include a variety of spacecraft equipped with specific instruments for various scientific and technological missions. These include communications satellites like Starlink; space stations such as the ISS; scientific satellites like the Hubble; Earth observation satellites from companies like Planet Labs, Umbra, and HawkEye 360; GPS; miniature CubeSats for education and research; and military/defense satellites.

Loading next visibility...
Identifier
49454, 2021-104AY
Orbit
LEO
Country
Flag of USUS
Related business
Manufacturer
SpaceX/Seattle
Mission
Operational Commercial Communications
Bus & Motor
STARLINK, Unknown motor
Mass
290 kg wet, ~270 kg dry
Launch date (UTC)
2021-11-13 (5 years ago)
Launch vehicle
FALCON 9
Launch site
Air Force Eastern Test Range (AFETR)
Object type
Payload
Rocket body
Debris
Shape & HBR
Box + 1 Pan, 10.1 m
Radar Cross Section
13.562 m², Large (>1 m²)

Expand to show TLE details & history
Last TLE update: 1 week ago

TLE from 1 week ago
0 STARLINK-3160
1 49454U 21104AY  26154.32445359 -.00002591  00000-0 -14469-3 0  9993
2 49454  53.1866 194.6769 0001042  93.7849 266.3262 15.08849877251705
Epoch: 2026-06-03T07:47Z
TLE epoch observation values (Epoch: 2026-06-03T07:47:12.790Z)
Latitude
Longitude
-173.91109°
Altitude
540.654 km
Speed
7.593 km/s
True Right ascension
12h 58m 42s
True Declination
0° 00' 00"
Sunlit
Object was in full shadow at epoch
Visualization orbit readout
Latitude
Unknown
Longitude
Unknown
Altitude
Unknown
Speed
Unknown
Apparent Right ascension
Unknown
Apparent Declination
Unknown
Sunlit
N/A
Visualization observer readout
Local Sidereal Time
11:59:10
Azimuth
Unknown
Elevation
Unknown
Doppler factor
Unknown
Orbital elements
Apogee altitude
540.684 km
Perigee altitude
539.242 km
Semi-major axis
6,918.1 km
Eccentricity
0.0001
Inclination
53.1866°
RAAN
194.6769°
Arg. of periapsis
93.7849°
True anomaly
266.31428°
Mean anomaly
266.3262°
Eccentric anomaly
266.32024°
Mean motion
3.77192 °/min
Orbital period
95.44 mins
BSTAR
-0.00014469
Loading maneuver chart data...
Computing Atmospheric mass density...
Loading historical data...
Loading historical data...
Loading historical data...
Loading historical data...
Loading historical data...
Loading historical data...
Loading historical data...

Documentation

Showing up to 5 results
|